Kezdőlap
METAR-TAF:

METAR-TAF

Repülőterek :

Muscatine, Iowa, Amerikai Egyesült Államok

földrajzi szélesség: 41-22N, földrajzi hosszúság: 091-09W, magasság: 167 m

Jelenlegi meteorológiai megfigyelések

A jelentés 29 perccel ezelõtt készült, 00:15 UTC
Nyugat-északnyugati szél 15 kt
Hőmérséklet 12°C
Páratartalom 35%
Légköri nyomás 1021 hPa
Látótávolság: 16.1 km
Derült ég

METAR: KMUT 200015Z AUTO 30015KT 10SM CLR 12/M03 A3015 RMK AO2

Idő: 19:44 (00:44 UTC)


TAF: hiányzik

Meteorológiai megfigyelések és előrejelzések több, mint 4000 repülőtéren (METAR és TAF jelentéseket).

A térképen piros és sárga pontok jelzik az elérhető meteorológiai állomásokat.

Mozgassa az egeret a pont fölött, hogy megjelenjen az állomás neve.

Azután kattintson az időjárási megfigyelések és előrejelzések megtekintéséhez.

A térkép megváltoztatása: kattintson a fekete keresztel jelölt zöld gombra ráközelítéshez, a vonallal jelölt zöld gombra távolításhoz, vagy a zöld nyilakra a szomszédos térképek eléréséhez.


METAR-TAF: